Home > Weather > Gorleben > Past weeks

Flag for Germany Weather for the Past 2 Weeks in Gorleben, Lower Saxony, Germany

Now
59 °F

Passing clouds.


Feels Like: 58 °F
Forecast: 40 / 65 °F
Wind: 8 mph from North

Location: Mecklenburg-Vorpommern - Parchim

Current Time: May 1, 2016 at 2:03:41 PM

Latest Report: May 1, 2016 at 1:20 PM


Visibility: N/A

Pressure: 30.27 "Hg

Humidity: 59%

Dew Point: 45 °F

Location of GorlebenLocation

Historic Weather in Gorleben — Graph

°F

Gorleben Temperature Yesterday

Maximum temperature yesterday: 61 °F (at 2:20 PM)
Minimum temperature yesterday: 39 °F (at 6:20 AM)
Average temperature yesterday: 54 °F

High & Low Weather Summary for the Past Weeks

 TemperatureHumidityPressure
High61 °F (Apr 30, 2:20 PM)100% (Apr 21, 6:20 AM)30.36 "Hg (Apr 21, 6:20 AM)
Low30 °F (Apr 21, 6:50 AM)38% (Apr 29, 1:50 PM)29.42 "Hg (Apr 26, 6:20 AM)
Average47 °F65%29.91 "Hg
* Reported Apr 16 12:20 PM — May 1 12:50 PM, Gorleben, Weather by CustomWeather, © 2016

Note: Actual official high and low records may vary slightly from our data, if they occured in-between our weather recording intervals... More about our weather records

Advertising

Gorleben Weather History for the Previous 24 Hours

Scroll right to see more
 ConditionsComfort  
Time TempWeatherWind HumidityBarometerVisibility
12:50 PM
Sun, May 1
59 °FPassing clouds.8 mph63%30.27 "HgN/A
12:20 PM57 °FPassing clouds.9 mph67%30.27 "HgN/A
11:50 AM55 °FPassing clouds.8 mph67%30.27 "HgN/A
11:20 AM55 °FPassing clouds.9 mph72%30.27 "HgN/A
10:50 AM54 °FPassing clouds.9 mph72%30.27 "HgN/A
10:20 AM52 °FPassing clouds.9 mph77%30.27 "HgN/A
9:50 AM50 °FPassing clouds.8 mph82%30.27 "HgN/A
8:50 AM48 °FPassing clouds.6 mph87%30.27 "HgN/A
8:20 AM46 °FPassing clouds.6 mph87%30.24 "HgN/A
7:50 AM45 °FPassing clouds.5 mph93%30.24 "HgN/A
7:20 AM43 °FSunny.2 mph100%30.24 "Hg10 mi
6:20 AM41 °FClear.2 mph100%30.21 "Hg10 mi
5:50 AM39 °FClear.1 mph100%30.21 "Hg10 mi
6:50 PM
Sat, Apr 30
50 °FSunny.13 mph76%30.09 "Hg10 mi
6:20 PM54 °FPassing clouds.10 mph67%30.09 "HgN/A
5:50 PM54 °FPassing clouds.10 mph67%30.09 "HgN/A
5:20 PM55 °FSunny.12 mph59%30.07 "Hg10 mi
4:50 PM59 °FSunny.5 mph42%30.07 "Hg10 mi
4:20 PM59 °FSunny.1 mph45%30.07 "Hg10 mi
3:50 PM59 °FSunny.1 mph42%30.07 "Hg10 mi
3:20 PM59 °FPassing clouds.6 mph45%30.07 "HgN/A
2:50 PM61 °FPassing clouds.8 mph42%30.07 "HgN/A
2:20 PM61 °FPassing clouds.6 mph42%30.07 "HgN/A
Weather by CustomWeather, © 2016

See weather overviewHow to use our weather pages